Time,TemperatureF,DewpointF,PressureIn,WindDirection,WindDirectionDegrees,WindSpeedMPH,WindSpeedGustMPH,Humidity,HourlyPrecipIn,Conditions,Clouds,dailyrainin,SoftwareType,DateUTC
2014-01-06 00:01:00,56.4,55.6,29.76,SW,224,4.0,-999.0,97,0.00,,,0.00,WeatherSnoop3.0,2014-01-06 05:01:00,
2014-01-06 00:02:00,56.4,55.6,29.76,SSE,160,3.0,-999.0,97,0.00,,,0.00,WeatherSnoop3.0,2014-01-06 05:02:00,
2014-01-06 00:04:00,56.5,55.7,29.76,SSE,156,5.0,-999.0,97,0.00,,,0.00,WeatherSnoop3.0,2014-01-06 05:04:00,
2014-01-06 00:07:00,56.6,55.8,29.75,SSE,159,5.0,-999.0,97,0.00,,,0.00,WeatherSnoop3.0,2014-01-06 05:07:00,
2014-01-06 00:12:00,56.8,56.0,29.75,SE,141,3.0,-999.0,97,0.00,,,0.00,WeatherSnoop3.0,2014-01-06 05:12:00,
2014-01-06 00:17:00,57.0,56.2,29.74,South,179,7.0,-999.0,97,0.00,,,0.00,WeatherSnoop3.0,2014-01-06 05:17:00,
2014-01-06 00:22:00,57.1,56.3,29.74,SSE,147,4.0,-999.0,97,0.00,,,0.00,WeatherSnoop3.0,2014-01-06 05:22:00,
2014-01-06 00:27:00,57.3,56.7,29.74,SW,231,1.0,-999.0,98,0.00,,,0.00,WeatherSnoop3.0,2014-01-06 05:27:00,
2014-01-06 00:32:00,57.4,56.8,29.74,South,169,9.0,-999.0,98,0.00,,,0.00,WeatherSnoop3.0,2014-01-06 05:32:00,
2014-01-06 00:37:00,57.5,56.7,29.74,WNW,291,2.0,-999.0,97,0.00,,,0.00,WeatherSnoop3.0,2014-01-06 05:37:00,
2014-01-06 00:43:00,57.6,57.0,29.74,SW,224,1.0,-999.0,98,0.00,,,0.00,WeatherSnoop3.0,2014-01-06 05:43:00,
2014-01-06 00:48:00,57.6,57.0,29.74,WSW,248,2.0,-999.0,98,0.00,,,0.00,WeatherSnoop3.0,2014-01-06 05:48:00,
2014-01-06 00:53:00,57.7,57.1,29.74,ESE,114,1.0,-999.0,98,0.00,,,0.00,WeatherSnoop3.0,2014-01-06 05:53:00,
2014-01-06 00:58:00,57.8,57.2,29.73,NW,318,1.0,-999.0,98,0.00,,,0.00,WeatherSnoop3.0,2014-01-06 05:58:00,
2014-01-06 01:03:00,57.9,57.3,29.73,WSW,242,1.0,-999.0,98,0.00,,,0.00,WeatherSnoop3.0,2014-01-06 06:03:00,
2014-01-06 01:08:00,57.9,57.1,29.72,SE,143,1.0,-999.0,97,0.00,,,0.00,WeatherSnoop3.0,2014-01-06 06:08:00,
2014-01-06 01:13:00,58.0,57.2,29.72,WSW,253,1.0,-999.0,97,0.00,,,0.00,WeatherSnoop3.0,2014-01-06 06:13:00,
2014-01-06 01:18:00,58.1,57.3,29.71,SSW,202,4.0,-999.0,97,0.00,,,0.00,WeatherSnoop3.0,2014-01-06 06:18:00,
2014-01-06 01:23:00,58.2,57.4,29.71,SSW,203,4.0,-999.0,97,0.00,,,0.00,WeatherSnoop3.0,2014-01-06 06:23:00,
2014-01-06 01:28:00,58.3,57.5,29.71,South,174,4.0,-999.0,97,0.00,,,0.00,WeatherSnoop3.0,2014-01-06 06:28:00,
2014-01-06 01:34:00,58.4,57.6,29.70,South,181,2.0,-999.0,97,0.00,,,0.00,WeatherSnoop3.0,2014-01-06 06:34:00,
2014-01-06 01:39:00,58.5,57.4,29.70,SSW,211,2.0,-999.0,96,0.00,,,0.00,WeatherSnoop3.0,2014-01-06 06:39:00,
2014-01-06 01:44:00,58.6,57.5,29.70,SSW,193,4.0,-999.0,96,0.00,,,0.00,WeatherSnoop3.0,2014-01-06 06:44:00,
2014-01-06 01:49:00,58.7,57.6,29.69,South,190,7.0,-999.0,96,0.00,,,0.00,WeatherSnoop3.0,2014-01-06 06:49:00,
2014-01-06 01:54:00,58.8,57.7,29.69,SSW,212,2.0,-999.0,96,0.00,,,0.00,WeatherSnoop3.0,2014-01-06 06:54:00,
2014-01-06 01:59:00,58.8,57.4,29.69,SE,145,3.0,-999.0,95,0.00,,,0.00,WeatherSnoop3.0,2014-01-06 06:59:00,
2014-01-06 02:04:00,59.0,57.9,29.68,SE,141,5.0,-999.0,96,0.00,,,0.00,WeatherSnoop3.0,2014-01-06 07:04:00,
2014-01-06 02:10:00,59.0,57.9,29.69,SE,144,4.0,-999.0,96,0.00,,,0.00,WeatherSnoop3.0,2014-01-06 07:10:00,
2014-01-06 02:15:00,59.1,57.7,29.68,SW,222,3.0,-999.0,95,0.00,,,0.00,WeatherSnoop3.0,2014-01-06 07:15:00,
2014-01-06 02:20:00,59.1,57.7,29.68,SW,228,4.0,-999.0,95,0.00,,,0.00,WeatherSnoop3.0,2014-01-06 07:20:00,
2014-01-06 02:25:00,59.1,57.7,29.68,South,170,3.0,-999.0,95,0.00,,,0.00,WeatherSnoop3.0,2014-01-06 07:25:00,
2014-01-06 02:30:00,59.2,57.8,29.68,South,190,2.0,-999.0,95,0.00,,,0.00,WeatherSnoop3.0,2014-01-06 07:30:00,
2014-01-06 02:35:00,59.2,57.8,29.67,SE,130,5.0,-999.0,95,0.00,,,0.00,WeatherSnoop3.0,2014-01-06 07:35:00,
2014-01-06 02:40:00,59.3,57.9,29.67,SE,136,3.0,-999.0,95,0.00,,,0.00,WeatherSnoop3.0,2014-01-06 07:40:00,
2014-01-06 02:45:00,59.3,57.9,29.67,South,179,3.0,-999.0,95,0.00,,,0.00,WeatherSnoop3.0,2014-01-06 07:45:00,
2014-01-06 02:50:00,59.3,57.9,29.67,SE,127,5.0,-999.0,95,0.00,,,0.00,WeatherSnoop3.0,2014-01-06 07:50:00,
2014-01-06 02:55:00,59.4,58.0,29.66,SSE,157,3.0,-999.0,95,0.00,,,0.00,WeatherSnoop3.0,2014-01-06 07:55:00,
2014-01-06 03:00:00,59.5,58.1,29.66,SSE,153,3.0,-999.0,95,0.00,,,0.00,WeatherSnoop3.0,2014-01-06 08:00:00,
2014-01-06 03:05:00,59.6,58.2,29.66,SSE,160,8.0,-999.0,95,0.00,,,0.00,WeatherSnoop3.0,2014-01-06 08:05:00,
2014-01-06 03:10:00,59.7,58.3,29.66,SSE,155,6.0,-999.0,95,0.00,,,0.00,WeatherSnoop3.0,2014-01-06 08:10:00,
2014-01-06 03:15:00,59.9,58.2,29.65,SSE,167,6.0,-999.0,94,0.00,,,0.00,WeatherSnoop3.0,2014-01-06 08:15:00,
2014-01-06 03:20:00,60.0,58.3,29.65,SSE,165,5.0,-999.0,94,0.00,,,0.00,WeatherSnoop3.0,2014-01-06 08:20:00,
2014-01-06 03:25:00,60.3,58.3,29.65,SE,125,7.0,-999.0,93,0.00,,,0.00,WeatherSnoop3.0,2014-01-06 08:25:00,
2014-01-06 03:30:00,60.4,58.4,29.65,SSW,205,4.0,-999.0,93,0.00,,,0.00,WeatherSnoop3.0,2014-01-06 08:30:00,
2014-01-06 03:35:00,60.1,58.4,29.65,South,174,1.0,-999.0,94,0.00,,,0.00,WeatherSnoop3.0,2014-01-06 08:35:00,
2014-01-06 03:40:00,59.9,58.5,29.65,SW,225,4.0,-999.0,95,0.00,,,0.00,WeatherSnoop3.0,2014-01-06 08:40:00,
2014-01-06 03:45:00,59.7,58.3,29.65,SSW,201,4.0,-999.0,95,0.00,,,0.00,WeatherSnoop3.0,2014-01-06 08:45:00,
2014-01-06 03:50:00,59.7,58.3,29.65,West,275,1.0,-999.0,95,0.00,,,0.00,WeatherSnoop3.0,2014-01-06 08:50:00,
2014-01-06 03:55:00,59.5,58.1,29.65,WNW,290,2.0,-999.0,95,0.00,,,0.00,WeatherSnoop3.0,2014-01-06 08:55:00,
2014-01-06 04:01:00,59.5,58.4,29.65,SW,214,5.0,-999.0,96,0.00,,,0.00,WeatherSnoop3.0,2014-01-06 09:01:00,
2014-01-06 04:06:00,59.5,58.1,29.65,SW,217,2.0,-999.0,95,0.00,,,0.00,WeatherSnoop3.0,2014-01-06 09:06:00,
2014-01-06 04:11:00,59.5,58.1,29.64,SW,227,3.0,-999.0,95,0.00,,,0.00,WeatherSnoop3.0,2014-01-06 09:11:00,
2014-01-06 04:16:00,59.6,58.2,29.64,WSW,238,2.0,-999.0,95,0.00,,,0.00,WeatherSnoop3.0,2014-01-06 09:16:00,
2014-01-06 04:21:00,59.6,58.2,29.64,West,275,3.0,-999.0,95,0.00,,,0.00,WeatherSnoop3.0,2014-01-06 09:21:00,
2014-01-06 04:26:00,59.8,58.4,29.64,SSE,148,3.0,-999.0,95,0.00,,,0.00,WeatherSnoop3.0,2014-01-06 09:26:00,
2014-01-06 04:31:00,59.9,58.5,29.63,SSW,198,3.0,-999.0,95,0.00,,,0.00,WeatherSnoop3.0,2014-01-06 09:31:00,
2014-01-06 04:36:00,59.9,58.5,29.63,SSW,197,2.0,-999.0,95,0.00,,,0.00,WeatherSnoop3.0,2014-01-06 09:36:00,
2014-01-06 04:41:00,60.0,58.6,29.63,SSW,208,3.0,-999.0,95,0.00,,,0.00,WeatherSnoop3.0,2014-01-06 09:41:00,
2014-01-06 04:46:00,60.1,58.7,29.62,SW,231,2.0,-999.0,95,0.00,,,0.00,WeatherSnoop3.0,2014-01-06 09:46:00,
2014-01-06 04:51:00,60.2,58.8,29.63,WSW,253,5.0,-999.0,95,0.00,,,0.00,WeatherSnoop3.0,2014-01-06 09:51:00,
2014-01-06 04:56:00,60.3,58.9,29.63,WSW,255,1.0,-999.0,95,0.00,,,0.00,WeatherSnoop3.0,2014-01-06 09:56:00,
2014-01-06 05:02:00,60.3,58.9,29.63,SW,214,4.0,-999.0,95,0.00,,,0.00,WeatherSnoop3.0,2014-01-06 10:02:00,
2014-01-06 05:07:00,60.3,58.9,29.63,SSW,207,2.0,-999.0,95,0.00,,,0.00,WeatherSnoop3.0,2014-01-06 10:07:00,
2014-01-06 05:12:00,60.5,58.8,29.62,SE,126,2.0,-999.0,94,0.00,,,0.00,WeatherSnoop3.0,2014-01-06 10:12:00,
2014-01-06 05:17:00,60.6,58.6,29.62,SSW,205,2.0,-999.0,93,0.00,,,0.00,WeatherSnoop3.0,2014-01-06 10:17:00,
2014-01-06 05:22:00,60.8,58.8,29.62,SE,143,2.0,-999.0,93,0.00,,,0.00,WeatherSnoop3.0,2014-01-06 10:22:00,
2014-01-06 05:27:00,60.9,58.6,29.62,WSW,245,3.0,-999.0,92,0.00,,,0.00,WeatherSnoop3.0,2014-01-06 10:27:00,
2014-01-06 05:32:00,61.0,58.7,29.63,SW,214,3.0,-999.0,92,0.00,,,0.00,WeatherSnoop3.0,2014-01-06 10:32:00,
2014-01-06 05:37:00,61.2,58.5,29.63,SW,233,4.0,-999.0,91,0.00,,,0.00,WeatherSnoop3.0,2014-01-06 10:37:00,
2014-01-06 05:42:00,61.3,58.3,29.63,WNW,295,3.0,-999.0,90,0.00,,,0.00,WeatherSnoop3.0,2014-01-06 10:42:00,
2014-01-06 05:48:00,61.3,58.3,29.62,West,265,3.0,-999.0,90,0.00,,,0.00,WeatherSnoop3.0,2014-01-06 10:48:00,
2014-01-06 05:53:00,61.3,58.0,29.62,West,263,3.0,-999.0,89,0.00,,,0.00,WeatherSnoop3.0,2014-01-06 10:53:00,
2014-01-06 05:58:00,61.3,57.7,29.62,WSW,255,3.0,-999.0,88,0.00,,,0.00,WeatherSnoop3.0,2014-01-06 10:58:00,
2014-01-06 06:03:00,61.4,57.8,29.62,West,278,4.0,-999.0,88,0.00,,,0.00,WeatherSnoop3.0,2014-01-06 11:03:00,
2014-01-06 06:08:00,61.3,57.7,29.62,West,273,2.0,-999.0,88,0.00,,,0.00,WeatherSnoop3.0,2014-01-06 11:08:00,
2014-01-06 06:13:00,61.2,57.6,29.62,SW,226,1.0,-999.0,88,0.00,,,0.00,WeatherSnoop3.0,2014-01-06 11:13:00,
2014-01-06 06:18:00,60.8,57.8,29.62,West,264,1.0,-999.0,90,0.00,,,0.00,WeatherSnoop3.0,2014-01-06 11:18:00,
2014-01-06 06:23:00,60.4,57.8,29.62,South,184,2.0,-999.0,91,0.00,,,0.00,WeatherSnoop3.0,2014-01-06 11:23:00,
2014-01-06 06:28:00,59.9,57.6,29.62,West,277,3.0,-999.0,92,0.00,,,0.00,WeatherSnoop3.0,2014-01-06 11:28:00,
2014-01-06 06:33:00,59.6,57.6,29.62,WSW,245,2.0,-999.0,93,0.00,,,0.00,WeatherSnoop3.0,2014-01-06 11:33:00,
2014-01-06 06:38:00,59.4,57.7,29.62,SSE,156,4.0,-999.0,94,0.00,,,0.00,WeatherSnoop3.0,2014-01-06 11:38:00,
2014-01-06 06:44:00,59.2,57.5,29.62,West,273,1.0,-999.0,94,0.00,,,0.00,WeatherSnoop3.0,2014-01-06 11:44:00,
2014-01-06 06:49:00,59.1,57.4,29.61,West,259,2.0,-999.0,94,0.00,,,0.00,WeatherSnoop3.0,2014-01-06 11:49:00,
2014-01-06 06:54:00,59.0,57.6,29.62,WSW,244,1.0,-999.0,95,0.00,,,0.00,WeatherSnoop3.0,2014-01-06 11:54:00,
2014-01-06 06:59:00,58.9,57.5,29.62,West,267,0.0,-999.0,95,0.00,,,0.00,WeatherSnoop3.0,2014-01-06 11:59:00,
2014-01-06 07:04:00,58.8,57.4,29.62,SSW,208,1.0,-999.0,95,0.00,,,0.00,WeatherSnoop3.0,2014-01-06 12:04:00,
2014-01-06 07:09:00,58.9,57.5,29.62,West,261,2.0,-999.0,95,0.00,,,0.00,WeatherSnoop3.0,2014-01-06 12:09:00,
2014-01-06 07:14:00,58.9,57.5,29.62,SSE,162,6.0,-999.0,95,0.00,,,0.00,WeatherSnoop3.0,2014-01-06 12:14:00,
2014-01-06 07:19:00,58.9,57.5,29.62,West,278,4.0,-999.0,95,0.00,,,0.00,WeatherSnoop3.0,2014-01-06 12:19:00,
2014-01-06 07:25:00,59.0,57.3,29.62,West,270,4.0,-999.0,94,0.00,,,0.00,WeatherSnoop3.0,2014-01-06 12:25:00,
2014-01-06 07:30:00,59.0,57.3,29.62,SW,233,4.0,-999.0,94,0.00,,,0.00,WeatherSnoop3.0,2014-01-06 12:30:00,
2014-01-06 07:35:00,59.0,57.3,29.62,West,279,3.0,-999.0,94,0.00,,,0.00,WeatherSnoop3.0,2014-01-06 12:35:00,
2014-01-06 07:40:00,59.0,57.3,29.62,WSW,255,2.0,-999.0,94,0.00,,,0.00,WeatherSnoop3.0,2014-01-06 12:40:00,
2014-01-06 07:45:00,58.9,57.2,29.62,West,281,2.0,-999.0,94,0.00,,,0.00,WeatherSnoop3.0,2014-01-06 12:45:00,
2014-01-06 07:50:00,59.0,57.0,29.62,West,275,6.0,-999.0,93,0.00,,,0.00,WeatherSnoop3.0,2014-01-06 12:50:00,
2014-01-06 07:55:00,59.2,56.9,29.62,WSW,238,1.0,-999.0,92,0.00,,,0.00,WeatherSnoop3.0,2014-01-06 12:55:00,
2014-01-06 08:00:00,59.2,56.9,29.62,West,263,2.0,-999.0,92,0.00,,,0.00,WeatherSnoop3.0,2014-01-06 13:00:00,
2014-01-06 08:05:00,59.3,57.0,29.63,West,276,2.0,-999.0,92,0.00,,,0.00,WeatherSnoop3.0,2014-01-06 13:05:00,
2014-01-06 08:10:00,57.9,53.4,29.65,West,273,5.0,-999.0,85,0.00,,,0.00,WeatherSnoop3.0,2014-01-06 13:10:00,
2014-01-06 08:15:00,54.6,51.1,29.66,WNW,284,2.0,-999.0,88,0.00,,,0.00,WeatherSnoop3.0,2014-01-06 13:15:00,
2014-01-06 08:20:00,52.8,49.9,29.67,SSE,152,4.0,-999.0,90,0.00,,,0.00,WeatherSnoop3.0,2014-01-06 13:20:00,
2014-01-06 08:26:00,51.6,49.4,29.67,SW,218,2.0,-999.0,92,0.00,,,0.00,WeatherSnoop3.0,2014-01-06 13:26:00,
2014-01-06 08:31:00,50.8,48.8,29.67,WNW,284,2.0,-999.0,93,0.00,,,0.00,WeatherSnoop3.0,2014-01-06 13:31:00,
2014-01-06 08:36:00,50.4,48.5,29.68,WNW,284,2.0,-999.0,93,0.00,,,0.00,WeatherSnoop3.0,2014-01-06 13:36:00,
2014-01-06 08:41:00,50.1,48.4,29.67,ENE,74,2.0,-999.0,94,0.00,,,0.00,WeatherSnoop3.0,2014-01-06 13:41:00,
2014-01-06 08:46:00,49.8,48.1,29.68,WNW,291,3.0,-999.0,94,0.00,,,0.00,WeatherSnoop3.0,2014-01-06 13:46:00,
2014-01-06 08:51:00,49.6,47.9,29.68,WNW,289,1.0,-999.0,94,0.00,,,0.00,WeatherSnoop3.0,2014-01-06 13:51:00,
2014-01-06 08:56:00,49.3,47.6,29.69,WNW,287,2.0,-999.0,94,0.00,,,0.00,WeatherSnoop3.0,2014-01-06 13:56:00,
2014-01-06 09:01:00,49.1,47.4,29.69,WNW,288,1.0,-999.0,94,0.00,,,0.00,WeatherSnoop3.0,2014-01-06 14:01:00,
2014-01-06 09:04:00,48.9,47.2,29.70,WNW,289,4.0,-999.0,94,0.00,,,0.00,WeatherSnoop3.0,2014-01-06 14:04:00,
2014-01-06 09:09:00,48.7,47.1,29.70,WNW,295,1.0,-999.0,94,0.00,,,0.00,WeatherSnoop3.0,2014-01-06 14:09:00,
2014-01-06 09:14:00,48.5,46.9,29.69,West,276,0.0,-999.0,94,0.00,,,0.00,WeatherSnoop3.0,2014-01-06 14:14:00,
2014-01-06 09:19:00,48.3,46.7,29.70,WNW,294,0.0,-999.0,94,0.00,,,0.00,WeatherSnoop3.0,2014-01-06 14:19:00,
2014-01-06 09:24:00,48.1,46.7,29.72,WNW,287,3.0,-999.0,95,0.00,,,0.00,WeatherSnoop3.0,2014-01-06 14:24:00,
2014-01-06 09:30:00,47.9,46.5,29.71,ENE,73,0.0,-999.0,95,0.00,,,0.00,WeatherSnoop3.0,2014-01-06 14:30:00,
2014-01-06 09:35:00,47.6,46.2,29.73,WSW,249,1.0,-999.0,95,0.00,,,0.00,WeatherSnoop3.0,2014-01-06 14:35:00,
2014-01-06 09:40:00,47.3,45.9,29.72,West,281,1.0,-999.0,95,0.00,,,0.00,WeatherSnoop3.0,2014-01-06 14:40:00,
2014-01-06 09:45:00,47.0,45.6,29.73,WNW,294,2.0,-999.0,95,0.00,,,0.00,WeatherSnoop3.0,2014-01-06 14:45:00,
2014-01-06 09:51:00,46.9,45.5,29.72,West,271,1.0,-999.0,95,0.00,,,0.00,WeatherSnoop3.0,2014-01-06 14:51:00,
2014-01-06 09:56:00,46.7,45.3,29.72,West,281,2.0,-999.0,95,0.00,,,0.00,WeatherSnoop3.0,2014-01-06 14:56:00,
2014-01-06 10:01:00,46.5,45.1,29.71,WNW,283,1.0,-999.0,95,0.00,,,0.00,WeatherSnoop3.0,2014-01-06 15:01:00,
2014-01-06 10:06:00,46.2,44.6,29.73,WNW,288,1.0,-999.0,94,0.00,,,0.00,WeatherSnoop3.0,2014-01-06 15:06:00,
2014-01-06 10:11:00,46.0,44.6,29.73,WNW,284,0.0,-999.0,95,0.00,,,0.00,WeatherSnoop3.0,2014-01-06 15:11:00,
2014-01-06 10:16:00,46.0,44.6,29.72,West,262,2.0,-999.0,95,0.00,,,0.00,WeatherSnoop3.0,2014-01-06 15:16:00,
2014-01-06 10:22:00,45.4,43.5,29.73,WNW,289,3.0,-999.0,93,0.00,,,0.00,WeatherSnoop3.0,2014-01-06 15:22:00,
2014-01-06 10:27:00,44.9,42.4,29.73,West,280,1.0,-999.0,91,0.00,,,0.00,WeatherSnoop3.0,2014-01-06 15:27:00,
2014-01-06 10:32:00,44.7,42.5,29.73,West,278,2.0,-999.0,92,0.00,,,0.00,WeatherSnoop3.0,2014-01-06 15:32:00,
2014-01-06 10:37:00,44.5,42.3,29.73,West,269,2.0,-999.0,92,0.00,,,0.00,WeatherSnoop3.0,2014-01-06 15:37:00,
2014-01-06 10:42:00,44.4,42.2,29.73,WNW,295,1.0,-999.0,92,0.00,,,0.00,WeatherSnoop3.0,2014-01-06 15:42:00,
2014-01-06 10:47:00,44.3,42.1,29.73,ESE,102,1.0,-999.0,92,0.00,,,0.00,WeatherSnoop3.0,2014-01-06 15:47:00,
2014-01-06 10:52:00,44.3,42.1,29.72,WNW,288,0.0,-999.0,92,0.00,,,0.00,WeatherSnoop3.0,2014-01-06 15:52:00,
2014-01-06 10:57:00,44.3,41.8,29.73,West,281,2.0,-999.0,91,0.00,,,0.00,WeatherSnoop3.0,2014-01-06 15:57:00,
2014-01-06 11:03:00,44.3,41.8,29.73,WNW,288,1.0,-999.0,91,0.00,,,0.00,WeatherSnoop3.0,2014-01-06 16:03:00,
2014-01-06 11:08:00,44.4,41.9,29.72,SW,222,2.0,-999.0,91,0.00,,,0.00,WeatherSnoop3.0,2014-01-06 16:08:00,
2014-01-06 11:13:00,44.5,41.8,29.72,WNW,295,1.0,-999.0,90,0.00,,,0.00,WeatherSnoop3.0,2014-01-06 16:13:00,
2014-01-06 11:18:00,44.7,41.9,29.72,WNW,298,1.0,-999.0,90,0.00,,,0.00,WeatherSnoop3.0,2014-01-06 16:18:00,
2014-01-06 11:23:00,44.9,41.9,29.72,West,264,1.0,-999.0,89,0.00,,,0.00,WeatherSnoop3.0,2014-01-06 16:23:00,
2014-01-06 11:28:00,45.1,42.1,29.72,WNW,290,0.0,-999.0,89,0.00,,,0.00,WeatherSnoop3.0,2014-01-06 16:28:00,
2014-01-06 11:33:00,45.4,42.1,29.72,WNW,291,2.0,-999.0,88,0.00,,,0.00,WeatherSnoop3.0,2014-01-06 16:33:00,
2014-01-06 11:38:00,45.6,42.0,29.72,West,281,1.0,-999.0,87,0.00,,,0.00,WeatherSnoop3.0,2014-01-06 16:38:00,
2014-01-06 11:43:00,45.8,41.6,29.72,WNW,291,1.0,-999.0,85,0.00,,,0.00,WeatherSnoop3.0,2014-01-06 16:43:00,
2014-01-06 11:48:00,45.8,40.9,29.72,WNW,284,3.0,-999.0,83,0.00,,,0.00,WeatherSnoop3.0,2014-01-06 16:48:00,
2014-01-06 11:53:00,45.9,41.0,29.72,WNW,284,2.0,-999.0,83,0.00,,,0.00,WeatherSnoop3.0,2014-01-06 16:53:00,
2014-01-06 11:58:00,46.4,41.8,29.72,West,281,1.0,-999.0,84,0.00,,,0.00,WeatherSnoop3.0,2014-01-06 16:58:00,
2014-01-06 12:04:00,46.6,41.7,29.72,WNW,287,1.0,-999.0,83,0.00,,,0.00,WeatherSnoop3.0,2014-01-06 17:04:00,
2014-01-06 12:09:00,46.3,41.4,29.72,WNW,302,1.0,-999.0,83,0.00,,,0.00,WeatherSnoop3.0,2014-01-06 17:09:00,
2014-01-06 12:14:00,46.1,40.6,29.72,West,280,1.0,-999.0,81,0.00,,,0.00,WeatherSnoop3.0,2014-01-06 17:14:00,
2014-01-06 12:19:00,46.0,40.2,29.72,West,259,1.0,-999.0,80,0.00,,,0.00,WeatherSnoop3.0,2014-01-06 17:19:00,
2014-01-06 12:24:00,45.9,40.1,29.72,NE,35,0.0,-999.0,80,0.00,,,0.00,WeatherSnoop3.0,2014-01-06 17:24:00,
2014-01-06 12:29:00,45.9,40.1,29.72,ENE,58,0.0,-999.0,80,0.00,,,0.00,WeatherSnoop3.0,2014-01-06 17:29:00,
2014-01-06 12:35:00,45.8,39.7,29.72,WNW,293,3.0,-999.0,79,0.00,,,0.00,WeatherSnoop3.0,2014-01-06 17:35:00,
2014-01-06 12:40:00,45.9,40.1,29.72,WNW,287,0.0,-999.0,80,0.00,,,0.00,WeatherSnoop3.0,2014-01-06 17:40:00,
2014-01-06 12:45:00,46.3,39.2,29.72,NE,54,3.0,-999.0,76,0.00,,,0.00,WeatherSnoop3.0,2014-01-06 17:45:00,
2014-01-06 12:50:00,46.9,37.3,29.71,West,270,2.0,-999.0,69,0.00,,,0.00,WeatherSnoop3.0,2014-01-06 17:50:00,
2014-01-06 12:55:00,47.1,37.1,29.72,WNW,290,1.0,-999.0,68,0.00,,,0.00,WeatherSnoop3.0,2014-01-06 17:55:00,
2014-01-06 13:00:00,47.7,36.5,29.71,West,279,3.0,-999.0,65,0.00,,,0.00,WeatherSnoop3.0,2014-01-06 18:00:00,
2014-01-06 13:05:00,48.2,36.2,29.72,WSW,249,7.0,-999.0,63,0.00,,,0.00,WeatherSnoop3.0,2014-01-06 18:05:00,
2014-01-06 13:10:00,47.8,32.9,29.72,WNW,289,4.0,-999.0,56,0.00,,,0.00,WeatherSnoop3.0,2014-01-06 18:10:00,
2014-01-06 13:15:00,47.5,33.0,29.72,West,277,4.0,-999.0,57,0.00,,,0.00,WeatherSnoop3.0,2014-01-06 18:15:00,
2014-01-06 13:21:00,47.9,33.4,29.72,WNW,283,4.0,-999.0,57,0.00,,,0.00,WeatherSnoop3.0,2014-01-06 18:21:00,
2014-01-06 13:26:00,48.2,31.4,29.72,NW,308,3.0,-999.0,52,0.00,,,0.00,WeatherSnoop3.0,2014-01-06 18:26:00,
2014-01-06 13:31:00,48.0,32.2,29.73,West,259,4.0,-999.0,54,0.00,,,0.00,WeatherSnoop3.0,2014-01-06 18:31:00,
2014-01-06 13:36:00,47.9,31.1,29.73,West,270,2.0,-999.0,52,0.00,,,0.00,WeatherSnoop3.0,2014-01-06 18:36:00,
2014-01-06 13:41:00,47.9,31.6,29.73,SE,143,5.0,-999.0,53,0.00,,,0.00,WeatherSnoop3.0,2014-01-06 18:41:00,
2014-01-06 13:46:00,48.7,33.3,29.73,West,275,3.0,-999.0,55,0.00,,,0.00,WeatherSnoop3.0,2014-01-06 18:46:00,
2014-01-06 13:51:00,48.3,32.0,29.73,NE,56,3.0,-999.0,53,0.00,,,0.00,WeatherSnoop3.0,2014-01-06 18:51:00,
2014-01-06 13:56:00,47.6,30.4,29.74,WNW,289,5.0,-999.0,51,0.00,,,0.00,WeatherSnoop3.0,2014-01-06 18:56:00,
2014-01-06 14:01:00,46.8,29.6,29.74,West,281,3.0,-999.0,51,0.00,,,0.00,WeatherSnoop3.0,2014-01-06 19:01:00,
2014-01-06 14:06:00,46.2,30.0,29.74,SW,214,2.0,-999.0,53,0.00,,,0.00,WeatherSnoop3.0,2014-01-06 19:06:00,
2014-01-06 14:12:00,46.3,28.7,29.75,West,274,2.0,-999.0,50,0.00,,,0.00,WeatherSnoop3.0,2014-01-06 19:12:00,
2014-01-06 14:17:00,46.4,29.7,29.75,WNW,287,2.0,-999.0,52,0.00,,,0.00,WeatherSnoop3.0,2014-01-06 19:17:00,
2014-01-06 14:22:00,46.7,29.5,29.75,WSW,249,6.0,-999.0,51,0.00,,,0.00,WeatherSnoop3.0,2014-01-06 19:22:00,
2014-01-06 14:27:00,46.0,27.9,29.76,WNW,287,2.0,-999.0,49,0.00,,,0.00,WeatherSnoop3.0,2014-01-06 19:27:00,
2014-01-06 14:32:00,45.5,27.0,29.76,WNW,289,5.0,-999.0,48,0.00,,,0.00,WeatherSnoop3.0,2014-01-06 19:32:00,
2014-01-06 14:37:00,45.6,27.6,29.76,West,281,3.0,-999.0,49,0.00,,,0.00,WeatherSnoop3.0,2014-01-06 19:37:00,
2014-01-06 14:42:00,45.3,26.8,29.77,WNW,291,2.0,-999.0,48,0.00,,,0.00,WeatherSnoop3.0,2014-01-06 19:42:00,
2014-01-06 14:47:00,44.5,25.5,29.77,West,260,4.0,-999.0,47,0.00,,,0.00,WeatherSnoop3.0,2014-01-06 19:47:00,
2014-01-06 14:53:00,44.1,24.7,29.77,WNW,283,4.0,-999.0,46,0.00,,,0.00,WeatherSnoop3.0,2014-01-06 19:53:00,
2014-01-06 14:58:00,43.7,25.3,29.78,East,82,4.0,-999.0,48,0.00,,,0.00,WeatherSnoop3.0,2014-01-06 19:58:00,
2014-01-06 15:03:00,43.6,25.7,29.78,West,267,4.0,-999.0,49,0.00,,,0.00,WeatherSnoop3.0,2014-01-06 20:03:00,
2014-01-06 15:08:00,43.0,23.7,29.79,West,277,3.0,-999.0,46,0.00,,,0.00,WeatherSnoop3.0,2014-01-06 20:08:00,
2014-01-06 15:13:00,42.7,23.9,29.79,West,271,5.0,-999.0,47,0.00,,,0.00,WeatherSnoop3.0,2014-01-06 20:13:00,
2014-01-06 15:18:00,42.8,24.5,29.79,WNW,298,5.0,-999.0,48,0.00,,,0.00,WeatherSnoop3.0,2014-01-06 20:18:00,
2014-01-06 15:23:00,42.5,22.7,29.79,WNW,291,3.0,-999.0,45,0.00,,,0.00,WeatherSnoop3.0,2014-01-06 20:23:00,
2014-01-06 15:28:00,42.2,22.4,29.80,NNE,19,6.0,-999.0,45,0.00,,,0.00,WeatherSnoop3.0,2014-01-06 20:28:00,
2014-01-06 15:33:00,42.0,23.2,29.80,WNW,283,2.0,-999.0,47,0.00,,,0.00,WeatherSnoop3.0,2014-01-06 20:33:00,
2014-01-06 15:38:00,41.8,23.1,29.81,WNW,288,3.0,-999.0,47,0.00,,,0.00,WeatherSnoop3.0,2014-01-06 20:38:00,
2014-01-06 15:44:00,41.6,23.4,29.81,WNW,287,3.0,-999.0,48,0.00,,,0.00,WeatherSnoop3.0,2014-01-06 20:44:00,
2014-01-06 15:49:00,41.5,24.7,29.81,SSE,157,4.0,-999.0,51,0.00,,,0.00,WeatherSnoop3.0,2014-01-06 20:49:00,
2014-01-06 15:54:00,41.5,24.3,29.81,West,277,1.0,-999.0,50,0.00,,,0.00,WeatherSnoop3.0,2014-01-06 20:54:00,
2014-01-06 15:59:00,41.3,24.6,29.81,West,278,1.0,-999.0,51,0.00,,,0.00,WeatherSnoop3.0,2014-01-06 20:59:00,
2014-01-06 16:04:00,41.1,24.8,29.81,WNW,293,2.0,-999.0,52,0.00,,,0.00,WeatherSnoop3.0,2014-01-06 21:04:00,
2014-01-06 16:09:00,41.1,24.8,29.82,NNW,338,2.0,-999.0,52,0.00,,,0.00,WeatherSnoop3.0,2014-01-06 21:09:00,
2014-01-06 16:14:00,40.9,24.2,29.82,WNW,283,2.0,-999.0,51,0.00,,,0.00,WeatherSnoop3.0,2014-01-06 21:14:00,
2014-01-06 16:19:00,40.8,24.6,29.83,WNW,288,0.0,-999.0,52,0.00,,,0.00,WeatherSnoop3.0,2014-01-06 21:19:00,
2014-01-06 16:24:00,40.9,24.2,29.83,WNW,283,4.0,-999.0,51,0.00,,,0.00,WeatherSnoop3.0,2014-01-06 21:24:00,
2014-01-06 16:29:00,40.8,24.1,29.83,West,267,1.0,-999.0,51,0.00,,,0.00,WeatherSnoop3.0,2014-01-06 21:29:00,
2014-01-06 16:34:00,40.5,22.9,29.83,West,275,2.0,-999.0,49,0.00,,,0.00,WeatherSnoop3.0,2014-01-06 21:34:00,
2014-01-06 16:39:00,40.3,20.7,29.84,West,269,3.0,-999.0,45,0.00,,,0.00,WeatherSnoop3.0,2014-01-06 21:39:00,
2014-01-06 16:45:00,39.9,20.3,29.84,West,267,2.0,-999.0,45,0.00,,,0.00,WeatherSnoop3.0,2014-01-06 21:45:00,
2014-01-06 16:50:00,39.7,20.6,29.84,WNW,283,4.0,-999.0,46,0.00,,,0.00,WeatherSnoop3.0,2014-01-06 21:50:00,
2014-01-06 16:55:00,39.5,21.0,29.84,WNW,288,3.0,-999.0,47,0.00,,,0.00,WeatherSnoop3.0,2014-01-06 21:55:00,
2014-01-06 17:00:00,39.2,21.2,29.85,WNW,287,3.0,-999.0,48,0.00,,,0.00,WeatherSnoop3.0,2014-01-06 22:00:00,
2014-01-06 17:05:00,38.9,20.9,29.85,WNW,284,3.0,-999.0,48,0.00,,,0.00,WeatherSnoop3.0,2014-01-06 22:05:00,
2014-01-06 17:10:00,38.6,20.6,29.85,West,279,4.0,-999.0,48,0.00,,,0.00,WeatherSnoop3.0,2014-01-06 22:10:00,
2014-01-06 17:15:00,38.2,20.7,29.86,WNW,301,2.0,-999.0,49,0.00,,,0.00,WeatherSnoop3.0,2014-01-06 22:15:00,
2014-01-06 17:20:00,38.0,20.6,29.86,West,267,3.0,-999.0,49,0.00,,,0.00,WeatherSnoop3.0,2014-01-06 22:20:00,
2014-01-06 17:26:00,37.7,20.3,29.86,WNW,290,2.0,-999.0,49,0.00,,,0.00,WeatherSnoop3.0,2014-01-06 22:26:00,
2014-01-06 17:31:00,37.4,20.5,29.87,West,271,2.0,-999.0,50,0.00,,,0.00,WeatherSnoop3.0,2014-01-06 22:31:00,
2014-01-06 17:36:00,37.2,21.2,29.87,WNW,293,2.0,-999.0,52,0.00,,,0.00,WeatherSnoop3.0,2014-01-06 22:36:00,
2014-01-06 17:41:00,37.1,20.7,29.88,West,271,4.0,-999.0,51,0.00,,,0.00,WeatherSnoop3.0,2014-01-06 22:41:00,
2014-01-06 17:46:00,36.8,19.9,29.88,NNE,25,3.0,-999.0,50,0.00,,,0.00,WeatherSnoop3.0,2014-01-06 22:46:00,
2014-01-06 17:51:00,36.7,20.3,29.88,WNW,285,1.0,-999.0,51,0.00,,,0.00,WeatherSnoop3.0,2014-01-06 22:51:00,
2014-01-06 17:56:00,36.4,20.9,29.88,WNW,283,3.0,-999.0,53,0.00,,,0.00,WeatherSnoop3.0,2014-01-06 22:56:00,
2014-01-06 18:01:00,36.3,20.8,29.89,WNW,290,3.0,-999.0,53,0.00,,,0.00,WeatherSnoop3.0,2014-01-06 23:01:00,
2014-01-06 18:06:00,36.0,20.1,29.89,WNW,290,1.0,-999.0,52,0.00,,,0.00,WeatherSnoop3.0,2014-01-06 23:06:00,
2014-01-06 18:11:00,35.8,21.2,29.90,ESE,115,3.0,-999.0,55,0.00,,,0.00,WeatherSnoop3.0,2014-01-06 23:11:00,
2014-01-06 18:16:00,35.5,20.1,29.90,WNW,285,1.0,-999.0,53,0.00,,,0.00,WeatherSnoop3.0,2014-01-06 23:16:00,
2014-01-06 18:21:00,35.3,20.3,29.91,West,276,1.0,-999.0,54,0.00,,,0.00,WeatherSnoop3.0,2014-01-06 23:21:00,
2014-01-06 18:26:00,35.1,20.2,29.91,West,280,0.0,-999.0,54,0.00,,,0.00,WeatherSnoop3.0,2014-01-06 23:26:00,
2014-01-06 18:32:00,34.9,21.2,29.91,WNW,287,4.0,-999.0,57,0.00,,,0.00,WeatherSnoop3.0,2014-01-06 23:32:00,
2014-01-06 18:37:00,34.8,19.9,29.92,West,270,1.0,-999.0,54,0.00,,,0.00,WeatherSnoop3.0,2014-01-06 23:37:00,
2014-01-06 18:42:00,34.6,20.1,29.92,WNW,288,0.0,-999.0,55,0.00,,,0.00,WeatherSnoop3.0,2014-01-06 23:42:00,
2014-01-06 18:47:00,34.3,19.8,29.93,SSE,155,3.0,-999.0,55,0.00,,,0.00,WeatherSnoop3.0,2014-01-06 23:47:00,
2014-01-06 18:52:00,34.1,18.3,29.93,NE,50,3.0,-999.0,52,0.00,,,0.00,WeatherSnoop3.0,2014-01-06 23:52:00,
2014-01-06 18:57:00,33.9,17.2,29.94,WSW,244,1.0,-999.0,50,0.00,,,0.00,WeatherSnoop3.0,2014-01-06 23:57:00,
2014-01-06 19:02:00,33.7,16.1,29.94,WNW,283,4.0,-999.0,48,0.00,,,0.00,WeatherSnoop3.0,2014-01-07 00:02:00,
2014-01-06 19:07:00,33.5,16.9,29.94,West,274,2.0,-999.0,50,0.00,,,0.00,WeatherSnoop3.0,2014-01-07 00:07:00,
2014-01-06 19:13:00,33.3,15.8,29.94,West,263,4.0,-999.0,48,0.00,,,0.00,WeatherSnoop3.0,2014-01-07 00:13:00,
2014-01-06 19:18:00,33.0,15.0,29.95,WNW,290,3.0,-999.0,47,0.00,,,0.00,WeatherSnoop3.0,2014-01-07 00:18:00,
2014-01-06 19:23:00,32.8,14.3,29.96,East,80,2.0,-999.0,46,0.00,,,0.00,WeatherSnoop3.0,2014-01-07 00:23:00,
2014-01-06 19:28:00,32.4,13.5,29.96,WSW,240,2.0,-999.0,45,0.00,,,0.00,WeatherSnoop3.0,2014-01-07 00:28:00,
2014-01-06 19:33:00,32.1,13.2,29.96,WNW,290,2.0,-999.0,45,0.00,,,0.00,WeatherSnoop3.0,2014-01-07 00:33:00,
2014-01-06 19:38:00,31.9,14.0,29.96,WNW,284,2.0,-999.0,47,0.00,,,0.00,WeatherSnoop3.0,2014-01-07 00:38:00,
2014-01-06 19:44:00,31.6,13.2,29.97,WNW,285,3.0,-999.0,46,0.00,,,0.00,WeatherSnoop3.0,2014-01-07 00:44:00,
2014-01-06 19:49:00,31.3,12.9,29.98,West,279,3.0,-999.0,46,0.00,,,0.00,WeatherSnoop3.0,2014-01-07 00:49:00,
2014-01-06 19:54:00,30.9,12.1,29.98,WNW,284,5.0,-999.0,45,0.00,,,0.00,WeatherSnoop3.0,2014-01-07 00:54:00,
2014-01-06 19:59:00,30.6,13.3,29.98,West,278,2.0,-999.0,48,0.00,,,0.00,WeatherSnoop3.0,2014-01-07 00:59:00,
2014-01-06 20:04:00,30.5,12.2,29.99,WNW,301,1.0,-999.0,46,0.00,,,0.00,WeatherSnoop3.0,2014-01-07 01:04:00,
2014-01-06 20:09:00,30.2,11.9,30.00,West,267,3.0,-999.0,46,0.00,,,0.00,WeatherSnoop3.0,2014-01-07 01:09:00,
2014-01-06 20:14:00,29.8,10.6,30.00,WNW,291,6.0,-999.0,44,0.00,,,0.00,WeatherSnoop3.0,2014-01-07 01:14:00,
2014-01-06 20:19:00,29.4,10.2,30.01,WNW,288,4.0,-999.0,44,0.00,,,0.00,WeatherSnoop3.0,2014-01-07 01:19:00,
2014-01-06 20:25:00,29.1,8.4,30.01,WSW,245,2.0,-999.0,41,0.00,,,0.00,WeatherSnoop3.0,2014-01-07 01:25:00,
2014-01-06 20:30:00,28.9,9.2,30.01,North,359,1.0,-999.0,43,0.00,,,0.00,WeatherSnoop3.0,2014-01-07 01:30:00,
2014-01-06 20:35:00,28.7,8.0,30.01,WNW,283,2.0,-999.0,41,0.00,,,0.00,WeatherSnoop3.0,2014-01-07 01:35:00,
2014-01-06 20:40:00,28.5,9.4,30.02,WNW,288,5.0,-999.0,44,0.00,,,0.00,WeatherSnoop3.0,2014-01-07 01:40:00,
2014-01-06 20:45:00,28.2,7.6,30.03,West,274,2.0,-999.0,41,0.00,,,0.00,WeatherSnoop3.0,2014-01-07 01:45:00,
2014-01-06 20:50:00,27.9,7.8,30.03,WSW,246,1.0,-999.0,42,0.00,,,0.00,WeatherSnoop3.0,2014-01-07 01:50:00,
2014-01-06 20:55:00,27.7,7.1,30.04,West,275,3.0,-999.0,41,0.00,,,0.00,WeatherSnoop3.0,2014-01-07 01:55:00,
2014-01-06 21:00:00,27.5,6.9,30.04,WNW,288,2.0,-999.0,41,0.00,,,0.00,WeatherSnoop3.0,2014-01-07 02:00:00,
2014-01-06 21:06:00,27.3,6.2,30.05,WNW,285,1.0,-999.0,40,0.00,,,0.00,WeatherSnoop3.0,2014-01-07 02:06:00,
2014-01-06 21:11:00,27.2,6.7,30.05,WNW,294,4.0,-999.0,41,0.00,,,0.00,WeatherSnoop3.0,2014-01-07 02:11:00,
2014-01-06 21:16:00,27.1,7.6,30.06,West,273,2.0,-999.0,43,0.00,,,0.00,WeatherSnoop3.0,2014-01-07 02:16:00,
2014-01-06 21:21:00,26.8,6.8,30.06,SSE,163,1.0,-999.0,42,0.00,,,0.00,WeatherSnoop3.0,2014-01-07 02:21:00,
2014-01-06 21:26:00,26.6,6.1,30.07,WSW,257,2.0,-999.0,41,0.00,,,0.00,WeatherSnoop3.0,2014-01-07 02:26:00,
2014-01-06 21:31:00,26.4,8.0,30.07,ESE,102,1.0,-999.0,45,0.00,,,0.00,WeatherSnoop3.0,2014-01-07 02:31:00,
2014-01-06 21:36:00,26.2,6.8,30.08,WNW,290,0.0,-999.0,43,0.00,,,0.00,WeatherSnoop3.0,2014-01-07 02:36:00,
2014-01-06 21:41:00,26.0,7.1,30.09,WNW,287,2.0,-999.0,44,0.00,,,0.00,WeatherSnoop3.0,2014-01-07 02:41:00,
2014-01-06 21:46:00,25.8,8.4,30.09,WNW,295,1.0,-999.0,47,0.00,,,0.00,WeatherSnoop3.0,2014-01-07 02:46:00,
2014-01-06 21:51:00,25.4,7.5,30.09,North,356,1.0,-999.0,46,0.00,,,0.00,WeatherSnoop3.0,2014-01-07 02:51:00,
2014-01-06 21:56:00,24.9,7.6,30.10,West,278,3.0,-999.0,47,0.00,,,0.00,WeatherSnoop3.0,2014-01-07 02:56:00,
2014-01-06 22:02:00,24.5,6.7,30.10,East,101,1.0,-999.0,46,0.00,,,0.00,WeatherSnoop3.0,2014-01-07 03:02:00,
2014-01-06 22:07:00,24.0,4.8,30.10,WNW,283,2.0,-999.0,43,0.00,,,0.00,WeatherSnoop3.0,2014-01-07 03:07:00,
2014-01-06 22:12:00,23.6,4.4,30.11,SSE,155,2.0,-999.0,43,0.00,,,0.00,WeatherSnoop3.0,2014-01-07 03:12:00,
2014-01-06 22:17:00,23.1,4.0,30.11,WNW,290,5.0,-999.0,43,0.00,,,0.00,WeatherSnoop3.0,2014-01-07 03:17:00,
2014-01-06 22:22:00,22.7,3.6,30.11,WNW,290,3.0,-999.0,43,0.00,,,0.00,WeatherSnoop3.0,2014-01-07 03:22:00,
2014-01-06 22:27:00,22.3,3.2,30.11,WNW,287,2.0,-999.0,43,0.00,,,0.00,WeatherSnoop3.0,2014-01-07 03:27:00,
2014-01-06 22:32:00,22.1,2.6,30.12,WNW,282,5.0,-999.0,42,0.00,,,0.00,WeatherSnoop3.0,2014-01-07 03:32:00,
2014-01-06 22:37:00,21.6,1.6,30.12,WNW,284,3.0,-999.0,41,0.00,,,0.00,WeatherSnoop3.0,2014-01-07 03:37:00,
2014-01-06 22:42:00,21.4,2.9,30.13,WNW,284,5.0,-999.0,44,0.00,,,0.00,WeatherSnoop3.0,2014-01-07 03:42:00,
2014-01-06 22:47:00,21.1,0.6,30.13,WNW,283,3.0,-999.0,40,0.00,,,0.00,WeatherSnoop3.0,2014-01-07 03:47:00,
2014-01-06 22:52:00,20.7,0.8,30.13,WNW,285,2.0,-999.0,41,0.00,,,0.00,WeatherSnoop3.0,2014-01-07 03:52:00,
2014-01-06 22:57:00,20.5,1.6,30.13,WNW,283,1.0,-999.0,43,0.00,,,0.00,WeatherSnoop3.0,2014-01-07 03:57:00,
2014-01-06 23:02:00,20.4,1.0,30.14,ENE,70,2.0,-999.0,42,0.00,,,0.00,WeatherSnoop3.0,2014-01-07 04:02:00,
2014-01-06 23:08:00,20.0,-0.4,30.14,WNW,284,2.0,-999.0,40,0.00,,,0.00,WeatherSnoop3.0,2014-01-07 04:08:00,
2014-01-06 23:13:00,19.7,-0.6,30.14,West,269,3.0,-999.0,40,0.00,,,0.00,WeatherSnoop3.0,2014-01-07 04:13:00,
2014-01-06 23:18:00,19.4,-0.4,30.14,WNW,285,3.0,-999.0,41,0.00,,,0.00,WeatherSnoop3.0,2014-01-07 04:18:00,
2014-01-06 23:23:00,19.2,0.4,30.14,SW,219,1.0,-999.0,43,0.00,,,0.00,WeatherSnoop3.0,2014-01-07 04:23:00,
2014-01-06 23:28:00,19.0,-0.7,30.14,SSW,213,2.0,-999.0,41,0.00,,,0.00,WeatherSnoop3.0,2014-01-07 04:28:00,
2014-01-06 23:33:00,18.8,0.5,30.15,West,280,4.0,-999.0,44,0.00,,,0.00,WeatherSnoop3.0,2014-01-07 04:33:00,
2014-01-06 23:38:00,18.7,-0.5,30.15,West,278,3.0,-999.0,42,0.00,,,0.00,WeatherSnoop3.0,2014-01-07 04:38:00,
2014-01-06 23:43:00,18.4,-1.7,30.15,West,280,2.0,-999.0,40,0.00,,,0.00,WeatherSnoop3.0,2014-01-07 04:43:00,
2014-01-06 23:48:00,18.3,-1.3,30.16,WNW,291,5.0,-999.0,41,0.00,,,0.00,WeatherSnoop3.0,2014-01-07 04:48:00,
2014-01-06 23:54:00,18.2,-0.4,30.15,West,281,1.0,-999.0,43,0.00,,,0.00,WeatherSnoop3.0,2014-01-07 04:54:00,
2014-01-06 23:59:00,18.1,-1.0,30.16,WNW,287,1.0,-999.0,42,0.00,,,0.00,WeatherSnoop3.0,2014-01-07 04:59:00,